Location: Eboldshausen
(51.7766°N, 10.0050°E)
Time: 17:13:42
(UTC+00:00)

BREEZE-M DEB (TANK) - Pass Details

Date: 15 November 2025
Orbit: 304 x 15917 km, 49.3° (Epoch: 09 December)

Event Time Altitude Azimuth Distance (km) Brightness Sun altitude
Rises 17:06:37 0° 231° (SW) 2,065 6.4 -14.9°
Reaches altitude 10° 17:08:04 10° 221° (SW) 1,385 5.2 -15.1°
Maximum altitude 17:10:31 38° 149° (SSE) 840 3.1 -15.5°
Enters shadow 17:12:39 24° 97° (E) 1,550 4.0 -15.8°
